| time (UTC) | temp F | wind direction | speed knots | gust knots | rain 1hr in | rain 24hr in | rain mn in | humidity % | barometer mb |
| 20260502233603 | 48 | 305 | 0.9 | 0.9 | 0.00 | 0.00 | 0.00 | 50 | 1017.6 |
| 20260502233101 | 48 | 281 | 0.9 | 0.9 | 0.00 | 0.00 | 0.00 | 49 | 1017.8 |
| 20260502232557 | 48 | 302 | 0.9 | 1.7 | 0.00 | 0.00 | 0.00 | 50 | 1017.6 |
| 20260502232054 | 48 | 301 | 0.9 | 0.9 | 0.00 | 0.00 | 0.00 | 49 | 1017.6 |
| 20260502231551 | 48 | 303 | 0.9 | 1.7 | 0.00 | 0.00 | 0.00 | 49 | 1017.6 |
| 20260502231049 | 49 | 257 | 2.6 | 2.6 | 0.00 | 0.00 | 0.00 | 45 | 1017.6 |
| 20260502230547 | 49 | 283 | 0.0 | 0.9 | 0.00 | 0.00 | 0.00 | 47 | 1017.7 |
| 20260502230045 | 48 | 297 | 0.0 | 0.0 | 0.00 | 0.00 | 0.00 | 49 | 1017.6 |
| 20260502225540 | 48 | 334 | 1.7 | 2.6 | 0.00 | 0.00 | 0.00 | 48 | 1017.6 |
| 20260502225038 | 48 | 349 | 0.9 | 1.7 | 0.00 | 0.00 | 0.00 | 48 | 1017.6 |
| 20260502224534 | 49 | 283 | 0.0 | 0.0 | 0.00 | 0.00 | 0.00 | 50 | 1017.6 |
| 20260502224031 | 49 | 272 | 0.9 | 0.9 | 0.00 | 0.00 | 0.00 | 48 | 1017.7 |
| 20260502223529 | 49 | 345 | 4.3 | 5.2 | 0.00 | 0.00 | 0.00 | 48 | 1017.7 |
| 20260502223027 | 49 | 277 | 0.0 | 0.9 | 0.00 | 0.00 | 0.00 | 49 | 1017.8 |
| 20260502222524 | 50 | 304 | 0.9 | 1.7 | 0.00 | 0.00 | 0.00 | 46 | 1017.8 |
| 20260502222021 | 49 | 234 | 1.7 | 1.7 | 0.00 | 0.00 | 0.00 | 49 | 1017.8 |
| 20260502221516 | 49 | 304 | 1.7 | 1.7 | 0.00 | 0.00 | 0.00 | 48 | 1017.6 |
| 20260502221014 | 49 | 278 | 0.9 | 0.9 | 0.00 | 0.00 | 0.00 | 46 | 1017.6 |
| 20260502220509 | 50 | 259 | 2.6 | 4.3 | 0.00 | 0.00 | 0.00 | 46 | 1017.7 |
| 20260502220006 | 50 | 242 | 0.9 | 1.7 | 0.00 | 0.00 | 0.00 | 48 | 1017.7 |
| 20260502215503 | 49 | 274 | 0.9 | 0.9 | 0.00 | 0.00 | 0.00 | 51 | 1017.7 |
| 20260502215000 | 48 | 29 | 1.7 | 1.7 | 0.00 | 0.00 | 0.00 | 48 | 1017.8 |
| 20260502214457 | 48 | 351 | 1.7 | 2.6 | 0.00 | 0.00 | 0.00 | 50 | 1017.7 |
| 20260502213954 | 48 | 310 | 0.9 | 0.9 | 0.00 | 0.00 | 0.00 | 51 | 1017.9 |
| 20260502213450 | 48 | 268 | 0.0 | 0.9 | 0.00 | 0.00 | 0.00 | 50 | 1017.7 |
| 20260502212949 | 48 | 242 | 0.9 | 1.7 | 0.00 | 0.00 | 0.00 | 51 | 1017.6 |
| 20260502212448 | 49 | 283 | 0.9 | 1.7 | 0.00 | 0.00 | 0.00 | 49 | 1017.8 |
| 20260502211944 | 49 | 267 | 0.9 | 1.7 | 0.00 | 0.00 | 0.00 | 51 | 1017.8 |
| 20260502211440 | 49 | 291 | 1.7 | 2.6 | 0.00 | 0.00 | 0.00 | 48 | 1017.9 |
| 20260502210938 | 50 | 308 | 0.0 | 0.0 | 0.00 | 0.00 | 0.00 | 51 | 1017.8 |
| 20260502210434 | 49 | 359 | 1.7 | 1.7 | 0.00 | 0.00 | 0.00 | 50 | 1017.9 |
| 20260502205932 | 49 | 228 | 0.0 | 1.7 | 0.00 | 0.00 | 0.00 | 49 | 1017.8 |
| 20260502205428 | 50 | 316 | 0.0 | 0.9 | 0.00 | 0.00 | 0.00 | 47 | 1017.8 |
| 20260502204925 | 50 | 322 | 1.7 | 1.7 | 0.00 | 0.00 | 0.00 | 47 | 1017.9 |
| 20260502204422 | 51 | 331 | 0.9 | 1.7 | 0.00 | 0.00 | 0.00 | 46 | 1018.1 |
| 20260502203920 | 49 | 308 | 0.9 | 1.7 | 0.00 | 0.00 | 0.00 | 51 | 1018.0 |
| 20260502203417 | 47 | 281 | 0.0 | 0.9 | 0.00 | 0.00 | 0.00 | 50 | 1018.2 |
| 20260502202912 | 48 | 218 | 1.7 | 1.7 | 0.00 | 0.00 | 0.00 | 55 | 1018.2 |
| 20260502202410 | 48 | 263 | 0.9 | 1.7 | 0.00 | 0.00 | 0.00 | 52 | 1018.2 |
| 20260502201908 | 48 | 302 | 1.7 | 1.7 | 0.00 | 0.00 | 0.00 | 51 | 1018.2 |
| 20260502201404 | 48 | 262 | 0.9 | 1.7 | 0.00 | 0.00 | 0.00 | 48 | 1018.2 |
| 20260502200901 | 48 | 341 | 2.6 | 2.6 | 0.00 | 0.00 | 0.00 | 49 | 1018.2 |
| 20260502200356 | 49 | 296 | 0.0 | 0.9 | 0.00 | 0.00 | 0.00 | 46 | 1018.4 |
| 20260502195854 | 48 | 326 | 0.9 | 1.7 | 0.00 | 0.00 | 0.00 | 49 | 1018.5 |
| 20260502195351 | 49 | 285 | 1.7 | 1.7 | 0.00 | 0.00 | 0.00 | 51 | 1018.6 |
| 20260502194848 | 49 | 289 | 1.7 | 1.7 | 0.00 | 0.00 | 0.00 | 45 | 1018.5 |
| 20260502194344 | 49 | 270 | 1.7 | 2.6 | 0.00 | 0.00 | 0.00 | 50 | 1018.7 |
| 20260502193840 | 49 | 298 | 0.9 | 0.9 | 0.00 | 0.00 | 0.00 | 48 | 1018.5 |
| 20260502193337 | 49 | 301 | 1.7 | 1.7 | 0.00 | 0.00 | 0.00 | 49 | 1018.8 |
| 20260502192833 | 48 | 263 | 0.9 | 0.9 | 0.00 | 0.00 | 0.00 | 51 | 1018.7 |
| 20260502192330 | 48 | 270 | 0.0 | 0.9 | 0.00 | 0.00 | 0.00 | 50 | 1018.7 |
| 20260502191827 | 48 | 340 | 1.7 | 1.7 | 0.00 | 0.00 | 0.00 | 48 | 1018.8 |
| 20260502191325 | 49 | 328 | 1.7 | 2.6 | 0.00 | 0.00 | 0.00 | 47 | 1018.9 |
| 20260502190822 | 49 | 28 | 1.7 | 2.6 | 0.00 | 0.00 | 0.00 | 48 | 1019.1 |
| 20260502190320 | 48 | 289 | 0.9 | 1.7 | 0.00 | 0.00 | 0.00 | 47 | 1019.3 |
| 20260502185815 | 48 | 194 | 2.6 | 4.3 | 0.00 | 0.00 | 0.00 | 50 | 1019.1 |
| 20260502185311 | 48 | 274 | 0.9 | 1.7 | 0.00 | 0.00 | 0.00 | 47 | 1019.1 |
| 20260502184808 | 47 | 307 | 0.9 | 1.7 | 0.00 | 0.00 | 0.00 | 51 | 1019.2 |
| 20260502184303 | 47 | 329 | 3.5 | 6.1 | 0.00 | 0.00 | 0.00 | 49 | 1019.2 |
| 20260502183800 | 47 | 267 | 1.7 | 2.6 | 0.00 | 0.00 | 0.00 | 47 | 1019.4 |
| 20260502183256 | 49 | 332 | 1.7 | 1.7 | 0.00 | 0.00 | 0.00 | 48 | 1019.1 |
| 20260502182752 | 50 | 298 | 1.7 | 1.7 | 0.00 | 0.00 | 0.00 | 46 | 1019.3 |
| 20260502182248 | 49 | 218 | 1.7 | 1.7 | 0.00 | 0.00 | 0.00 | 50 | 1019.4 |
| 20260502181744 | 48 | 290 | 0.9 | 0.9 | 0.00 | 0.00 | 0.00 | 53 | 1019.1 |
| 20260502181243 | 47 | 278 | 0.0 | 0.9 | 0.00 | 0.00 | 0.00 | 51 | 1019.4 |
| 20260502180740 | 48 | 333 | 0.0 | 0.9 | 0.00 | 0.00 | 0.00 | 46 | 1019.1 |
| 20260502180238 | 50 | 273 | 1.7 | 2.6 | 0.00 | 0.00 | 0.00 | 43 | 1019.4 |
| 20260502170202 | 46 | 275 | 2.6 | 2.6 | 0.00 | 0.00 | 0.00 | 48 | 1020.0 |
| 20260502164148 | 46 | 329 | 1.7 | 1.7 | 0.00 | 0.00 | 0.00 | 53 | 1020.2 |
| 20260502163644 | 46 | 257 | 2.6 | 2.6 | 0.00 | 0.00 | 0.00 | 51 | 1019.9 |
| 20260502163141 | 46 | 9 | 0.9 | 1.7 | 0.00 | 0.00 | 0.00 | 50 | 1020.1 |
| 20260502162638 | 46 | 334 | 2.6 | 2.6 | 0.00 | 0.00 | 0.00 | 46 | 1020.1 |
| 20260502162135 | 45 | 6 | 3.5 | 5.2 | 0.00 | 0.00 | 0.00 | 50 | 1019.9 |
| 20260502161632 | 46 | 8 | 2.6 | 4.3 | 0.00 | 0.00 | 0.00 | 48 | 1019.9 |
| 20260502161129 | 48 | 135 | 1.7 | 1.7 | 0.00 | 0.00 | 0.00 | 45 | 1020.0 |
| 20260502160627 | 46 | 265 | 1.7 | 1.7 | 0.00 | 0.00 | 0.00 | 52 | 1020.2 |
| 20260502160126 | 44 | 342 | 1.7 | 1.7 | 0.00 | 0.00 | 0.00 | 50 | 1019.9 |
| 20260502152040 | 43 | 312 | 0.9 | 0.9 | 0.00 | 0.00 | 0.00 | 52 | 1020.2 |
| 20260502151537 | 42 | 331 | 0.9 | 1.7 | 0.00 | 0.00 | 0.00 | 53 | 1020.1 |
| 20260502151034 | 43 | 260 | 0.0 | 0.9 | 0.00 | 0.00 | 0.00 | 53 | 1020.2 |
| 20260502150531 | 43 | 348 | 0.9 | 0.9 | 0.00 | 0.00 | 0.00 | 54 | 1020.4 |
| 20260502130416 | 39 | 306 | 0.9 | 0.9 | 0.00 | 0.00 | 0.00 | 75 | 1020.4 |
| 20260502123359 | 37 | 313 | 0.9 | 0.9 | 0.00 | 0.00 | 0.00 | 80 | 1020.2 |
| 20260502122856 | 36 | 314 | 0.9 | 0.9 | 0.00 | 0.00 | 0.00 | 81 | 1020.3 |
| 20260502122352 | 36 | 320 | 1.7 | 2.6 | 0.00 | 0.00 | 0.00 | 81 | 1020.2 |
| 20260502121850 | 36 | 242 | 0.9 | 2.6 | 0.00 | 0.00 | 0.00 | 81 | 1020.3 |
| 20260502121347 | 35 | 306 | 0.9 | 0.9 | 0.00 | 0.00 | 0.00 | 83 | 1020.3 |
| 20260502120845 | 35 | 277 | 0.0 | 0.0 | 0.00 | 0.00 | 0.00 | 84 | 1020.2 |
| 20260502120340 | 35 | 277 | 1.7 | 1.7 | 0.00 | 0.00 | 0.00 | 84 | 1020.1 |
| 20260502115838 | 35 | 275 | 0.0 | 0.0 | 0.00 | 0.00 | 0.00 | 84 | 1020.1 |
| 20260502115335 | 34 | 276 | 1.7 | 1.7 | 0.00 | 0.00 | 0.00 | 85 | 1020.1 |
| 20260502114832 | 33 | 305 | 0.0 | 0.0 | 0.00 | 0.00 | 0.00 | 87 | 1019.9 |
| 20260502114329 | 33 | 326 | 0.9 | 1.7 | 0.00 | 0.00 | 0.00 | 89 | 1020.1 |
| 20260502113826 | 32 | 265 | 0.0 | 0.0 | 0.00 | 0.00 | 0.00 | 91 | 1019.9 |
| 20260502113323 | 32 | 265 | 0.0 | 0.0 | 0.00 | 0.00 | 0.00 | 92 | 1020.1 |
| 20260502112821 | 31 | 263 | 0.0 | 0.0 | 0.00 | 0.00 | 0.00 | 93 | 1019.9 |
| 20260502112318 | 30 | 262 | 0.0 | 0.0 | 0.00 | 0.00 | 0.00 | 93 | 1019.8 |
| 20260502111816 | 30 | 262 | 0.0 | 0.0 | 0.00 | 0.00 | 0.00 | 93 | 1019.9 |
| 20260502111313 | 29 | 260 | 0.0 | 0.0 | 0.00 | 0.00 | 0.00 | 93 | 1019.5 |
| 20260502110810 | 29 | 260 | 0.0 | 0.0 | 0.00 | 0.00 | 0.00 | 94 | 1019.5 |
| 20260502110309 | 29 | 260 | 0.0 | 0.0 | 0.00 | 0.00 | 0.00 | 94 | 1019.7 |
| 20260502105806 | 28 | 260 | 0.0 | 0.0 | 0.00 | 0.00 | 0.00 | 94 | 1019.5 |
| 20260502105305 | 28 | 260 | 0.0 | 0.0 | 0.00 | 0.00 | 0.00 | 93 | 1019.5 |
| 20260502104800 | 28 | 259 | 0.0 | 0.0 | 0.00 | 0.00 | 0.00 | 93 | 1019.5 |
| 20260502104257 | 28 | 259 | 0.0 | 0.0 | 0.00 | 0.00 | 0.00 | 93 | 1019.7 |
| 20260502103754 | 28 | 237 | 0.0 | 0.0 | 0.00 | 0.00 | 0.00 | 93 | 1019.5 |
| 20260502103252 | 28 | 273 | 0.0 | 0.0 | 0.00 | 0.00 | 0.00 | 93 | 1019.5 |
| 20260502102749 | 28 | 273 | 0.0 | 0.0 | 0.00 | 0.00 | 0.00 | 93 | 1019.5 |
| 20260502102245 | 28 | 273 | 0.0 | 0.0 | 0.00 | 0.00 | 0.00 | 93 | 1019.4 |
| 20260502101744 | 28 | 273 | 0.0 | 0.0 | 0.00 | 0.00 | 0.00 | 93 | 1019.5 |
| 20260502101241 | 29 | 273 | 0.0 | 0.0 | 0.00 | 0.00 | 0.00 | 93 | 1019.4 |
| 20260502100739 | 29 | 273 | 0.0 | 0.0 | 0.00 | 0.00 | 0.00 | 93 | 1019.4 |
| 20260502100238 | 29 | 273 | 0.0 | 0.0 | 0.00 | 0.00 | 0.00 | 93 | 1019.7 |
| 20260502091212 | 30 | 273 | 0.0 | 0.0 | 0.00 | 0.00 | 0.00 | 91 | 1019.1 |
| 20260502090709 | 30 | 273 | 0.0 | 0.0 | 0.00 | 0.00 | 0.00 | 91 | 1019.3 |
| 20260502090206 | 30 | 273 | 0.0 | 0.0 | 0.00 | 0.00 | 0.00 | 90 | 1019.2 |
| 20260502071101 | 33 | 284 | 0.0 | 0.9 | 0.00 | 0.00 | 0.00 | 83 | 1018.8 |
| 20260502070559 | 33 | 285 | 0.0 | 0.0 | 0.00 | 0.00 | 0.00 | 85 | 1018.8 |
| 20260502070057 | 33 | 285 | 0.0 | 0.0 | 0.00 | 0.00 | 0.00 | 84 | 1018.8 |
| 20260502065555 | 33 | 285 | 0.0 | 0.0 | 0.00 | 0.00 | 0.00 | 84 | 1018.8 |
| 20260502065053 | 33 | 286 | 0.0 | 0.0 | 0.00 | 0.00 | 0.00 | 82 | 1019.0 |
| 20260502064551 | 33 | 286 | 0.0 | 0.0 | 0.00 | 0.00 | 0.00 | 80 | 1018.9 |
| 20260502064048 | 34 | 285 | 0.0 | 0.0 | 0.00 | 0.00 | 0.00 | 82 | 1018.8 |
| 20260502063545 | 34 | 286 | 0.0 | 0.0 | 0.00 | 0.00 | 0.00 | 81 | 1018.8 |
| 20260502063043 | 35 | 286 | 0.0 | 0.0 | 0.00 | 0.00 | 0.00 | 80 | 1018.9 |
| 20260502062540 | 35 | 294 | 0.0 | 0.9 | 0.00 | 0.00 | 0.00 | 78 | 1019.0 |
| 20260502062038 | 35 | 273 | 0.0 | 0.0 | 0.00 | 0.00 | 0.00 | 79 | 1019.1 |
| 20260502061536 | 36 | 273 | 0.0 | 0.0 | 0.00 | 0.00 | 0.00 | 80 | 1019.1 |
| 20260502061033 | 36 | 273 | 0.0 | 0.0 | 0.00 | 0.00 | 0.00 | 76 | 1019.0 |
| 20260502060528 | 37 | 273 | 0.0 | 0.0 | 0.00 | 0.00 | 0.00 | 74 | 1019.2 |
| 20260502060025 | 37 | 273 | 0.0 | 0.0 | 0.00 | 0.00 | 0.00 | 72 | 1019.2 |
| 20260502055522 | 38 | 273 | 0.0 | 0.0 | 0.00 | 0.00 | 0.00 | 72 | 1019.0 |
| 20260502055021 | 38 | 272 | 0.9 | 0.9 | 0.00 | 0.00 | 0.00 | 73 | 1019.2 |
| 20260502054519 | 39 | 286 | 0.0 | 0.0 | 0.00 | 0.00 | 0.00 | 70 | 1019.0 |
| 20260502054016 | 39 | 291 | 0.0 | 0.0 | 0.00 | 0.00 | 0.00 | 70 | 1019.2 |
| 20260502053513 | 39 | 275 | 0.9 | 1.7 | 0.00 | 0.00 | 0.00 | 70 | 1019.1 |
| 20260502053011 | 39 | 305 | 0.9 | 0.9 | 0.00 | 0.00 | 0.00 | 70 | 1019.1 |
| 20260502052509 | 39 | 270 | 0.0 | 0.0 | 0.00 | 0.00 | 0.00 | 72 | 1019.3 |
| 20260502052007 | 39 | 286 | 0.0 | 0.9 | 0.00 | 0.00 | 0.00 | 73 | 1019.0 |
| 20260502051505 | 39 | 279 | 0.0 | 0.0 | 0.00 | 0.00 | 0.00 | 73 | 1019.0 |
| 20260502051001 | 39 | 285 | 0.0 | 0.0 | 0.00 | 0.00 | 0.00 | 72 | 1019.1 |
| 20260502050458 | 39 | 273 | 0.0 | 0.0 | 0.00 | 0.00 | 0.00 | 71 | 1019.0 |
| 20260502045955 | 39 | 271 | 0.0 | 0.9 | 0.00 | 0.00 | 0.00 | 70 | 1019.1 |
| 20260502045452 | 39 | 285 | 0.0 | 0.0 | 0.00 | 0.00 | 0.00 | 70 | 1019.2 |
| 20260502044949 | 39 | 296 | 0.0 | 0.9 | 0.00 | 0.00 | 0.00 | 69 | 1019.1 |
| 20260502044444 | 40 | 272 | 0.0 | 0.0 | 0.00 | 0.00 | 0.00 | 71 | 1018.9 |
| 20260502043942 | 40 | 277 | 0.0 | 0.0 | 0.00 | 0.00 | 0.00 | 69 | 1018.7 |
| 20260502043439 | 40 | 293 | 0.0 | 0.0 | 0.00 | 0.00 | 0.00 | 66 | 1018.8 |
| 20260502042938 | 40 | 309 | 2.6 | 2.6 | 0.00 | 0.00 | 0.00 | 67 | 1018.6 |
| 20260502042436 | 41 | 294 | 0.0 | 0.9 | 0.00 | 0.00 | 0.00 | 67 | 1018.7 |
| 20260502041933 | 41 | 318 | 2.6 | 2.6 | 0.00 | 0.00 | 0.00 | 65 | 1018.9 |
| 20260502041431 | 41 | 298 | 1.7 | 1.7 | 0.00 | 0.00 | 0.00 | 65 | 1018.5 |
| 20260502040928 | 41 | 354 | 1.7 | 1.7 | 0.00 | 0.00 | 0.00 | 65 | 1018.6 |
| 20260502040424 | 41 | 319 | 1.7 | 1.7 | 0.00 | 0.00 | 0.00 | 65 | 1018.4 |
| 20260502035920 | 41 | 285 | 0.0 | 0.9 | 0.00 | 0.00 | 0.00 | 68 | 1018.7 |
| 20260502035417 | 41 | 349 | 2.6 | 2.6 | 0.00 | 0.00 | 0.00 | 66 | 1018.3 |
| 20260502034915 | 41 | 312 | 0.9 | 0.9 | 0.00 | 0.00 | 0.00 | 67 | 1018.4 |
| 20260502034414 | 41 | 320 | 0.9 | 1.7 | 0.00 | 0.00 | 0.00 | 68 | 1018.6 |
| 20260502033911 | 41 | 315 | 2.6 | 2.6 | 0.00 | 0.00 | 0.00 | 68 | 1018.4 |
| 20260502033409 | 41 | 297 | 0.9 | 0.9 | 0.00 | 0.00 | 0.00 | 69 | 1018.3 |
| 20260502032905 | 41 | 269 | 0.9 | 1.7 | 0.00 | 0.00 | 0.00 | 70 | 1018.5 |
| 20260502032401 | 41 | 349 | 1.7 | 1.7 | 0.00 | 0.00 | 0.00 | 68 | 1018.5 |
| 20260502031859 | 41 | 354 | 1.7 | 2.6 | 0.00 | 0.00 | 0.00 | 68 | 1018.5 |
| 20260502031357 | 41 | 317 | 0.9 | 1.7 | 0.00 | 0.00 | 0.00 | 70 | 1018.4 |
| 20260502030855 | 41 | 306 | 0.0 | 0.9 | 0.00 | 0.00 | 0.00 | 72 | 1018.3 |
| 20260502030353 | 40 | 278 | 2.6 | 2.6 | 0.00 | 0.00 | 0.00 | 72 | 1018.3 |
| 20260502025850 | 40 | 339 | 1.7 | 1.7 | 0.00 | 0.00 | 0.00 | 77 | 1018.2 |
| 20260502025347 | 39 | 328 | 1.7 | 1.7 | 0.00 | 0.00 | 0.00 | 78 | 1018.2 |
| 20260502024845 | 39 | 288 | 0.0 | 0.0 | 0.00 | 0.00 | 0.00 | 81 | 1018.2 |
| 20260502024343 | 37 | 260 | 0.9 | 0.9 | 0.00 | 0.00 | 0.00 | 89 | 1018.3 |
| 20260502023841 | 37 | 273 | 0.0 | 0.0 | 0.00 | 0.00 | 0.00 | 90 | 1018.1 |
| 20260502023338 | 37 | 273 | 0.0 | 0.0 | 0.00 | 0.00 | 0.00 | 90 | 1018.1 |
| 20260502022836 | 37 | 273 | 0.0 | 0.0 | 0.00 | 0.00 | 0.00 | 91 | 1018.1 |
| 20260502022332 | 37 | 273 | 0.0 | 0.0 | 0.00 | 0.00 | 0.00 | 90 | 1018.0 |
| 20260502021829 | 36 | 273 | 0.0 | 0.0 | 0.00 | 0.00 | 0.00 | 90 | 1018.0 |
| 20260502021326 | 36 | 273 | 0.0 | 0.0 | 0.00 | 0.00 | 0.00 | 90 | 1017.9 |
| 20260502020824 | 36 | 273 | 0.0 | 0.0 | 0.00 | 0.00 | 0.00 | 90 | 1017.9 |
| 20260502020321 | 36 | 273 | 0.0 | 0.0 | 0.00 | 0.00 | 0.00 | 90 | 1017.9 |
| 20260502015818 | 37 | 273 | 0.0 | 0.0 | 0.00 | 0.00 | 0.00 | 89 | 1017.7 |
| 20260502015315 | 37 | 273 | 0.0 | 0.0 | 0.00 | 0.00 | 0.00 | 89 | 1017.7 |
| 20260502014812 | 37 | 273 | 0.0 | 0.0 | 0.00 | 0.00 | 0.00 | 87 | 1017.7 |
| 20260502014309 | 37 | 273 | 0.0 | 0.0 | 0.00 | 0.00 | 0.00 | 86 | 1017.8 |
| 20260502013805 | 38 | 273 | 0.0 | 0.0 | 0.00 | 0.00 | 0.00 | 84 | 1017.8 |
| 20260502013301 | 38 | 273 | 0.0 | 0.0 | 0.00 | 0.00 | 0.00 | 83 | 1017.6 |
| 20260502012757 | 38 | 273 | 0.0 | 0.0 | 0.00 | 0.00 | 0.00 | 82 | 1017.5 |
| 20260502012255 | 38 | 273 | 0.0 | 0.0 | 0.00 | 0.00 | 0.00 | 82 | 1017.5 |
| 20260502011752 | 39 | 273 | 0.0 | 0.0 | 0.00 | 0.00 | 0.00 | 81 | 1017.6 |
| 20260502011248 | 39 | 273 | 0.0 | 0.0 | 0.00 | 0.00 | 0.00 | 80 | 1017.6 |
| 20260502010746 | 39 | 273 | 0.0 | 0.0 | 0.00 | 0.00 | 0.00 | 79 | 1017.6 |
| 20260502010242 | 40 | 273 | 0.0 | 0.0 | 0.00 | 0.00 | 0.00 | 78 | 1017.6 |
| 20260502005739 | 40 | 273 | 0.0 | 0.0 | 0.00 | 0.00 | 0.00 | 78 | 1017.5 |
| 20260502005237 | 40 | 273 | 0.0 | 0.0 | 0.00 | 0.00 | 0.00 | 76 | 1017.5 |
| 20260502004733 | 41 | 276 | 0.0 | 0.9 | 0.00 | 0.00 | 0.00 | 75 | 1017.4 |
| 20260502004230 | 41 | 303 | 0.9 | 0.9 | 0.00 | 0.00 | 0.00 | 76 | 1017.3 |
| 20260502003728 | 41 | 290 | 0.0 | 0.0 | 0.00 | 0.00 | 0.00 | 75 | 1017.6 |
| 20260502003225 | 42 | 282 | 0.0 | 0.0 | 0.00 | 0.00 | 0.00 | 74 | 1017.3 |
| 20260502002720 | 42 | 288 | 0.0 | 0.0 | 0.00 | 0.00 | 0.00 | 73 | 1017.2 |
| 20260502002219 | 42 | 290 | 0.0 | 0.9 | 0.00 | 0.00 | 0.00 | 71 | 1017.5 |
| 20260502001715 | 42 | 322 | 0.9 | 1.7 | 0.00 | 0.00 | 0.00 | 71 | 1017.4 |
| 20260502001214 | 43 | 275 | 0.9 | 0.9 | 0.00 | 0.00 | 0.00 | 72 | 1017.3 |
| 20260502000710 | 43 | 8 | 2.6 | 4.3 | 0.00 | 0.00 | 0.00 | 71 | 1017.4 |
| 20260502000211 | 43 | 271 | 0.0 | 0.0 | 0.00 | 0.00 | 0.00 | 70 | 1017.0 |
| 20260501235704 | 43 | 316 | 0.9 | 0.9 | 0.00 | 0.00 | 0.00 | 70 | 1017.2 |
| 20260501235200 | 43 | 323 | 0.9 | 0.9 | 0.00 | 0.00 | 0.00 | 71 | 1017.1 |
| 20260501234656 | 43 | 321 | 1.7 | 2.6 | 0.00 | 0.00 | 0.00 | 70 | 1017.2 |
| 20260501234153 | 43 | 288 | 0.0 | 0.0 | 0.00 | 0.00 | 0.00 | 70 | 1017.1 |